Regional Weather Roundup
Issued by NWS

Home | Current Version | Previous Version | Text Only | Print | Product List | Glossary On
Versions: 1 2 3 4 5 6 7 8 9 10 11 12 13 14 15 16 17 18 19 20 21 22 23 24 25 26 27 28 29 30 31 32 33 34 35 36 37 38 39 40 41 42 43 44 45 46 47 48 49 50
000
ASHW40 PHFO 250243
RWRHI

WEATHER ROUNDUP FOR HAWAII
NATIONAL WEATHER SERVICE HONOLULU HI
400 PM HST THU JUL 24 2014

THIS IS AN AUTOMATED REPORT THAT HAS NOT BEEN QUALITY CONTROLLED.

NOTE..."FAIR" INDICATES FEW OR NO CLOUDS BELOW 12,000 FEET WITH NO
SIGNIFICANT WEATHER AND/OR OBSTRUCTIONS TO VISIBILITY.

* - THESE SITES REPORT LIMITED FIELDS

HIZ001>004-250300-
KAUAI-NIIHAU-

CITY           SKY/WX    TMP DP  RH WIND       PRES   REMARKS
LIHUE APT      SUNNY     83  69  62 NE15      30.04F
PORT ALLEN*      N/A     86 N/A N/A E20G32      N/A
POIPU*           N/A     84 N/A N/A NE9G18      N/A
PRINCEVILLE*   NOT AVBL
KOKOLE POINT*    N/A     84  59  42 MISG        N/A
MOLOAA DAIRY*  NOT AVBL
WAIMEA HTS*      N/A     86  61  42 S6G12       N/A
PUU OPAE*        N/A     73  64  73 SW2         N/A
PUU LUA*       NOT AVBL
MAKAHA RIDGE*  NOT AVBL
$$

HIZ005>011-250300-
OAHU-

CITY           SKY/WX    TMP DP  RH WIND       PRES   REMARKS
HONOLULU       MOSUNNY   86  65  49 E14G23    29.99F
KALAELOA       MOSUNNY   87  64  46 NE8       30.00F
KANEOHE MCB    MOSUNNY   81  65  58 NE9       30.02F
WHEELER FIELD  FAIR      82  65  57 E12G18    30.02F
BELLOWS*         N/A    N/A N/A N/A NE15        N/A
KAHUKU*          N/A    N/A N/A N/A NE10G20     N/A
WHEELER*       NOT AVBL
WAIANAE HARBOR NOT AVBL
DILLINGHAM*      N/A     90  64  43 NE9G18      N/A  HX  91
KAHUKU TRN*      N/A     81  68  65 E10G23      N/A
KAWAILOA*      NOT AVBL
KII*             N/A     82  72  69 CALM        N/A
MAKUA RANGE*     N/A     88  63  42 NE12G22     N/A
OAHU FOREST NW   N/A     68  66  94 NE20G35     N/A
SCHOFIELD BRK*   N/A     79  63  57 MISG        N/A
SCHOFIELD S*   NOT AVBL
WAIANAE VLY*     N/A     84  63  48 SE5G18      N/A
KUAOKALA*        N/A     77  64  65 CALM        N/A
HONOULIUULI*   NOT AVBL
MOKUOLOE IS*     N/A    N/A N/A N/A MISG        N/A
PALEHUA*         N/A     88  63  42 CALM        N/A
WAIAWA PHB*    NOT AVBL
$$

HIZ012>013-250300-
MOLOKAI-

CITY           SKY/WX    TMP DP  RH WIND       PRES   REMARKS
MOLOKAI AIRPT  MOSUNNY   81  71  71 N15G24    30.01F
KALAUPAPA      NOT AVBL
MAKAPULAPAI*     N/A     82  68  61 E16G23      N/A
MOLOKAI 1*       N/A     73  63  68 NE10G26     N/A
PUU ALII*        N/A     65  59  81 E3G12       N/A
$$

HIZ016-250300-
KAHOOLAWE-

CITY           SKY/WX    TMP DP  RH WIND       PRES   REMARKS
KAHOOLAWE*       N/A     75 N/A N/A E15G23      N/A
HAKIOAWA*        N/A     75  65  70 MISG      30.11F
HONOKANAIA*      N/A     82  66  59 E17G29    29.99
KANELOA*         N/A     79  68  69 E17G31    30.09
KEALIALALO*      N/A    N/A N/A N/A E14G24      N/A
LUA MAKIKA*    NOT AVBL
$$

HIZ014>015-250300-
LANAI-

CITY           SKY/WX    TMP DP  RH WIND       PRES   REMARKS
LANAI CITY     FAIR      79  65  62 NE25      30.04F
LANAI 1*         N/A     75  70  83 NE22G35     N/A
$$

HIZ017>028-250300-
MAUI-

CITY           SKY/WX    TMP DP  RH WIND       PRES   REMARKS
KAHULUI        MOSUNNY   84  67  56 NE23G32   29.98F
KAPALUA-W MAUI MOSUNNY   82  66  57 NE17G24   29.99F
HANA AIRPORT   CLOUDY    81  68  65 NE6       30.04S
HANA*            N/A     81 N/A N/A NE6         N/A
HALEAKALA SUMM   N/A     52  14  22 E18G31      N/A
MAALAEA BAY*   NOT AVBL
HALEAKALA*     NOT AVBL
KAUPO GAP*       N/A     75  66  73 S5G12       N/A
KULA 1*          N/A     63  58  85 W2          N/A
$$

HIZ023>026-250300-
BIG ISLAND OF HAWAII COAST AND LOWER SLOPES-

CITY           SKY/WX    TMP DP  RH WIND       PRES   REMARKS
KAILUA KONA    CLOUDY    85  72  65 S9        29.94F HX  91
HILO           PTSUNNY   83  70  64 NE10      30.00F
HONOKAA*       NOT AVBL
KAWAIHAE MWT*    N/A     88 N/A N/A SW10G18     N/A
KAWAIHAE*        N/A     88 N/A N/A E16G26      N/A
SOUTH POINT*     N/A     73 N/A N/A E17G24      N/A
UPOLU AIRPORT*   N/A    N/A N/A N/A NE20G28     N/A
KAMUELA*       MOCLDY    72  64  78 N12G25    30.08F
HAKALAU*         N/A     63  56  79 E5G10       N/A
KALOKO-HONOKO*   N/A     84  72  65 SW3G12    29.94F
PALI 2*          N/A     75  61  60 NE20G31     N/A
KEALAKOMO*       N/A     82  73  74 E21G32      N/A
KAUPULEHU*       N/A     81  66  61 W7G16       N/A
KAPAPALA*        N/A     75  69  81 E10G23      N/A
LOWER KAHUKU*  NOT AVBL
PUHE CS*       NOT AVBL
PUHO CS*         N/A     80  73  80 W3          N/A
PTA KEAMUKU*     N/A     72  59  64 NE23        N/A
WAIKOLOA*        N/A     82  61  47 NE18G30     N/A
$$

HIZ027>028-250300-
BIG ISLAND OF HAWAII INTERIOR AND SUMMMITS-

CITY           SKY/WX    TMP DP  RH WIND       PRES   REMARKS
BRADSHAW FIELD MOSUNNY   68  55  64 S14G24    30.31F
MK VISITOR CEN NOT AVBL
MAUNA KEA*       N/A     45   3  18 E24         N/A
MAUNA LOA*       N/A    N/A N/A N/A MISG        N/A
MAUNA LOA 1*     N/A    N/A N/A N/A MISG        N/A
PTA KIPUKA*      N/A     70  59  68 NW7G18      N/A
PTA RANGE 17*    N/A     68  59  73 W12G18      N/A
PTA WEST*        N/A     72  63  73 W10G18      N/A
NENE CABIN*    NOT AVBL
AHUMOA*          N/A     63  60  90 NE5G12      N/A
PTA PORTABLE*  NOT AVBL
PUU MALI*      NOT AVBL
$$

HIC003-250300-
NORTHWEST ISLANDS-

CITY           SKY/WX    TMP DP  RH WIND       PRES   REMARKS
MIDWAY ISLAND  MOSUNNY   88  73  62 SE8       30.13F HX  96
MIDWAY NOS*    NOT AVBL
FRENCH FRIGATE NOT AVBL
$$

PHZ110>124-180-250300-
BUOY REPORTS

STATION/POSITION TIME  TEMP    WIND        PRES    WAVE   SWELL
                       AIR SEA DIR/SP/G            HT/PER HT/DIR
                 (UTC) (F)     (DEG/KT/KT) (MB)    (FT/S) (FT/D)
BUOY 51001       NOT AVBL
BUOY 51101       NOT AVBL
BUOY 51100       0200   74 78  100/  6/  8 1017.2F
BUOY 51003       0200   81 81   60/ 16/ 19 1014.9F   8/ 8   5
BUOY 51004       0130   79 80   50/ 16/ 17 1013.2    7/ 8   5/ 70
BARBERS PT BUOY  NOT AVBL
WAIMEA BAY BUOY  0200      79                N/A     4/ 7
KAILUA BAY BUOY  0200      80                N/A     6/ 8
LANAI BUOY       0200      81                N/A     2/11   2/210
BARBERS PT 2     0200      81                N/A     4/ 8   2/180
PAUWELA MAUI     0200      79                N/A     5/ 8
HILO             NOT AVBL
KANEOHE BAY BUOY 0200      79                N/A     5/ 8
HANALEI KAUAI    NOT AVBL
KAHULUI HARBOR   0200   78 81   20/ 16/ 19 1015.5F
HONOLULU HARBOR  0200   83      40/  7/ 12 1015.8F
KILO NALU        NOT AVBL
HILO HARBOR      0200   81      40/  8/ 12 1015.4F
MOKUOLOE         0200      82              1016.7F
NAWILIWILI       0200      81                N/A
WHOTS BUOY       NOT AVBL
BUOY 51028       NOT AVBL
$$

......................KEY........................................
  SKY/WX - SKY CONDITIONS/PRESENT WEATHER
  TMP    - TEMPERATURE IN FAHRENHEIT
  DWPT   - DEWPOINT IN FAHRENHEIT
  RH     - RELATIVE HUMIDITY IN PERCENT
  WIND   - DIRECTION AND SPEED /MPH FOR ISLANDS...KTS FOR BUOYS/
  PRES   - MEAN SEA LEVEL PRESSURE IN INCHES OF HG
  VSB    - VISIBILITY IN MILES
  HX     - HEAT INDEX
  WCI    - WIND CHILL INDEX
  VRB    - VARIABLE WIND DIRECTION
  N/A    - NOT AVAILABLE



USA.gov is the U.S. government's official web portal to all federal, state and local government web resources and services.